Regional Weather Roundup
Issued by NWS

Home | Current Version | Previous Version | Graphics & Text | Print | Product List | Glossary On
Versions: 1 2 3 4 5 6 7 8 9 10 11 12 13 14 15 16 17 18 19 20 21 22 23 24 25 26 27 28 29 30 31 32 33 34 35 36 37 38 39 40 41 42 43 44 45 46 47 48 49 50
000
ASUS43 KIND 290109
RWRIN

WEATHER ROUNDUP FOR INDIANA
NATIONAL WEATHER SERVICE INDIANAPOLIS IN
900 PM EDT SUN MAY 28 2017

NOTE: "FAIR" INDICATES FEW OR NO CLOUDS BELOW 12,000 FEET WITH NO
SIGNIFICANT WEATHER AND/OR OBSTRUCTIONS TO VISIBILITY.

* - STATION DOES NOT REPORT WEATHER SUCH AS PRECIPITATION OR FOG.

+ - STATION NOT QUALITY CONTROLLED BY THE NATIONAL WEATHER SERVICE.
    USE DATA WITH CAUTION...ESPECIALLY DEWPOINT AND RELATIVE
    HUMIDITY OBSERVATIONS.

INZ001>003-010>013-019-020-290200-
NORTHWEST INDIANA

CITY           SKY/WX    TMP DP  RH WIND       PRES   REMARKS
GARY /AIRPORT/ PTCLDY    73  48  40 VRB7      29.76R
KNOX *+        CLEAR     66  48  52 NW3       29.77R
LA PORTE +     CLEAR     67  57  71 CALM      29.77R
MICHIGAN CITY+ CLEAR     63  55  77 CALM      29.77R
MONTICELLO +   CLEAR     69  55  60 W7        29.77R
RENSSELAER +   CLEAR     72  43  35 W7        29.78S
VALPARAISO     CLEAR     71  59  65 W3        29.77R

$$

LMZ046-743>745-290200-
SOUTHERN LAKE MICHIGAN

STATION/POSITION TIME  TEMP    WIND        PRES    WAVE
                       AIR SEA DIR/SP/G            HT
                 (UTC) (F)     (DEG/KT/KT) (MB)    (FT)
BURNS HARBOR     0040   66      CALM  /  1 1008.1R
MICHIGAN CITY    0040   59     200/  4/  4   N/A
5NW MICH CITY    0100   58 57  180/  2/  4   N/A     1

$$

INZ004-005-014>016-021>024-290200-
NORTH CENTRAL INDIANA

CITY           SKY/WX    TMP DP  RH WIND       PRES   REMARKS
GOSHEN         CLEAR     66  53  63 NW10      29.76R
LOGANSPORT +   CLEAR     70  57  64 NW5       29.78R
PERU/GRISSOM   PTCLDY    70  65  83 NW9       29.76R
ROCHESTER +    CLEAR     70  59  68 NW3       29.77R
SOUTH BEND     CLEAR     63  56  78 W7        29.77R
WARSAW +       CLEAR     64  55  72 NW7       29.77R

$$

INZ006>009-017-018-025>027-290200-
NORTHEAST INDIANA

CITY           SKY/WX    TMP DP  RH WIND       PRES   REMARKS
ANGOLA *+      MOCLDY    70  63  78 NW13      29.74R
AUBURN +       LGT RAIN  64  63  94 SW6       29.75R
FORT WAYNE     CLOUDY    62  60  93 VRB5      29.77R THUNDER
HUNTINGTON +   LGT RAIN  61  60  96 CALM      29.73R
KENDALLVILLE + CLOUDY    69  58  70 NW9       29.76R

$$

INZ028-029-035-036-043>045-051>053-290200-
WEST CENTRAL INDIANA

CITY           SKY/WX    TMP DP  RH WIND       PRES   REMARKS
CRAWFORDSVL +  CLEAR    -17 -23  73 NW6       29.81R WCI -32
GREENCASTLE +  MOCLDY    68  66  94 CALM      29.81S FOG
LAFAYETTE      CLEAR     69  54  58 W8        29.78R
TERRE HAUTE    PTCLDY    73  54  51 NW7       29.81R

$$

INZ030>032-037>040-046>048-054>057-064-065-290200-
CENTRAL INDIANA

CITY           SKY/WX    TMP DP  RH WIND       PRES   REMARKS
CP ATTERBURY + TSTM      63  61  94 NW3       29.83R
COLUMBUS       CLOUDY    66  59  77 CALM      29.81R
FRANKFORT +    PTCLDY    72  59  63 NW9       29.81R
GREENWOOD *+   CLOUDY    64  64  97 CALM      29.82R
INDIANAPOLIS   CLOUDY    66  64  93 SW9       29.80R
-EAGLE CREEK   CLOUDY    67  64  90 SW6       29.80R
KOKOMO +       PTCLDY    68  63  84 W8        29.78R
MT COMFORT *+    N/A    N/A N/A N/A MISG        N/A
SHELBYVILLE    TSTM      66  62  87 NW7       29.82R FOG
ZIONSVILLE +   MOCLDY    65  64  95 SW6       29.80S

$$

INZ033-034-041-042-049-050-058-059-290200-
EAST CENTRAL INDIANA

CITY           SKY/WX    TMP DP  RH WIND       PRES   REMARKS
MUNCIE         CLOUDY    70  64  81 SW12      29.78R
RICHMOND +     LGT RAIN  64  61  88 W16       29.80F

$$

INZ060-061-067>069-081>083-085>088-290200-
SOUTHWEST INDIANA

CITY           SKY/WX    TMP DP  RH WIND       PRES   REMARKS
EVANSVILLE     CLEAR     73  62  68 W5        29.86R
WASHINGTON +   CLEAR     72  62  71 W8        29.83S

$$

INZ062-063-066-070>080-084-089>092-290200-
SOUTH CENTRAL AND SOUTHEAST INDIANA

CITY           SKY/WX    TMP DP  RH WIND       PRES   REMARKS
BEDFORD +      CLEAR     72  61  68 SW7       29.82
BLOOMINGTON    MOCLDY    71  63  75 W7        29.82R
MADISON *+     PTCLDY    70  63  78 SW8       29.85S
NORTH VERNON + HVY RAIN  63  63 100 CALM      29.81S
SEYMOUR +      CLOUDY    73  64  73 SW10      29.81R

$$




USA.gov is the U.S. government's official web portal to all federal, state and local government web resources and services.